This demonstration page uses our WeatherBlox Daily Observations layout. Learn more.

Left ArrowRight Arrow

34.02893, -84.19858

Hourly Observations for September 27, 2022

Temp ( °F °C ) Dew Point ( °F °C ) Humidity (%) Winds ( mph kmh ) Pressure ( in mb ) Visibility ( mi km ) Precip ( " mm )
12:53 am 00:53 Clear 57 13.9 47 8.3 69 69 NNW 5 7 29.98 1015 10 16 0.00 0.00
1:53 am 01:53 Clear 57 13.9 46 7.8 67 67 NNW 6 9 29.97 1015 10 16 0.00 0.00
2:53 am 02:53 Clear 52 11.1 46 7.8 80 80 NNW 3 6 29.98 1015 10 16 0.00 0.00
3:53 am 03:53 Clear 48 8.9 45 7.2 89 89 NNE 3 6 29.98 1015 10 16 0.00 0.00
4:53 am 04:53 Clear 49 9.4 45 7.2 86 86 NNW 7 11 29.98 1015 10 16 0.00 0.00
5:53 am 05:53 Clear 50 10 44 6.7 80 80 N 6 9 29.98 1015 10 16 0.00 0.00
6:53 am 06:53 Clear 50 10 42 5.6 74 74 NNW 7 11 30.00 1016 10 16 0.00 0.00
7:53 am 07:53 Sunny 51 10.6 41 5 68 68 NNW 7 11 30.01 1016 10 16 0.00 0.00
8:53 am 08:53 Sunny 57 13.9 41 5 55 55 NNW 8 13 30.03 1017 10 16 0.00 0.00
9:53 am 09:53 Sunny 62 16.7 41 5 46 46 NW 9 15 30.05 1018 10 16 0.00 0.00
10:53 am 10:53 Sunny 66 18.9 39 3.9 37 37 NNW 13 20 30.06 1018 10 16 0.00 0.00
11:53 am 11:53 Sunny 68 20 40 4.4 36 36 WNW 12 19 30.06 1018 10 16 0.00 0.00
12:53 pm 12:53 Sunny 71 21.7 37 2.8 29 29 NNW 14 22 30.05 1018 10 16 0.00 0.00
1:53 pm 13:53 Sunny 71 21.7 39 3.9 31 31 NNW 12 19 30.05 1018 10 16 0.00 0.00
2:53 pm 14:53 Sunny 72 22.2 36 2.2 27 27 WNW 14 22 30.03 1017 10 16 0.00 0.00
3:53 pm 15:53 Sunny 73 22.8 36 2.2 26 26 NNW 14 22 30.03 1017 10 16 0.00 0.00
4:53 pm 16:53 Sunny 72 22.2 36 2.2 27 27 N 17 28 30.04 1017 10 16 0.00 0.00
5:53 pm 17:53 Sunny 71 21.7 37 2.8 29 29 NNW 15 24 30.04 1017 10 16 0.00 0.00
6:53 pm 18:53 Sunny 68 20 36 2.2 31 31 NNW 15 24 30.06 1018 10 16 0.00 0.00
7:53 pm 19:53 Clear 64 17.8 38 3.3 38 38 NNW 7 11 30.08 1019 10 16 0.00 0.00
8:53 pm 20:53 Clear 61 16.1 39 3.9 44 44 NNW 6 9 30.10 1019 10 16 0.00 0.00
9:53 pm 21:53 Clear 59 15 40 4.4 49 49 N 9 15 30.10 1019 10 16 0.00 0.00
10:53 pm 22:53 Clear 58 14.4 40 4.4 51 51 NNW 10 17 30.11 1020 10 16 0.00 0.00
11:53 pm 23:53 Clear 56 13.3 40 4.4 55 55 N 8 13 30.12 1020 10 16 0.00 0.00

Powered by AerisWeather